sat.trackr.live / text

‹ back to catalog

SCISAT 1

NORAD 27858 · 2003-036A

PAYLOAD ACTIVE UNKNOWN

§ Identity

Operator
Country
CA
Launch date
2003-08-13
Launch site
WRAS
Launch vehicle
Mass (kg)
RCS (m²)
0.68

Purposes: science

External: N2YO · Heavens-Above · Gunter

§ Orbital elements

Epoch: 2026-05-25T04:44:53.189376Z

Period
97.20 min
Inclination
73.9300°
Eccentricity
0.0008627
Mean motion
14.81419978 rev/d
Perigee alt
618.8 km
Apogee alt
630.9 km
Semi-major
7,003.0 km
B*
6.1933e-5
RAAN
217.0178°
Arg perigee
284.3086°
Mean anomaly
75.7132°
Rev number
22,804

§ Raw data

SCISAT 11 27858U 03036A   26145.19783784  .00000448  00000+0  61933-4 0  99982 27858  73.9300 217.0178 0008627 284.3086  75.7132 14.81419978228047

JSON: /api/v1/satellites/27858 · /tle

For live sub-satellite position, see the globe view (requires WebGL).

§ Visibility from observer

Set your observer location to see the next 7 days of passes ≥ 10°. The values pass through the URL so the page stays shareable.

No JS? Fill the form by hand. The geolocation button needs JavaScript.

§ Radio — SatNOGS DB

ModeDescriptionDownlinkUplink
BPSK S-band telemetry 2.232 GHz

1 transmitter · refreshed weekly from db.satnogs.org